Weather History for McGuire AFB, NJ

Change the Weather History Date:

Monday, September 24, 2012

  Actual Average Record
Temperature  
Mean Temperature 58 °F -  
Max Temperature 68 °F 72 °F 91 °F (2010)
Min Temperature 47 °F 52 °F 41 °F (1998)
Degree Days  
Heating Degree Days 8    
Growing Degree Days 8 (Base 50)    
Moisture  
Dew Point 42 °F    
Average Humidity 63    
Maximum Humidity 88    
Minimum Humidity 33    
Precipitation  
Precipitation 0.00 in - - ()
Sea Level Pressure  
Sea Level Pressure 30.14 in    
Wind  
Wind Speed 5 mph (NW)    
Max Wind Speed 14 mph    
Max Gust Speed 18 mph    
Visibility 10 miles    
Events      
Averages and records for this station are not official NWS values.
T = Trace of Precipitation, MM = Missing Value Source: NWS Daily Summary

Daily Weather History Graph

Daily Weather History Graph

Search for Another Location

Airport:

Trip Planner

Search our weather history database for the weather conditions in past years. The results will help you decide how hot, cold, wet, or windy it might be!

Date:

Astronomy

Sep. 24, 2012 Rise Set
Actual Time 6:48 AM EDT 6:51 PM EDT
Civil Twilight 6:21 AM EDT 7:18 PM EDT
Nautical Twilight 5:49 AM EDT 7:49 PM EDT
Astronomical Twilight 5:17 AM EDT 8:21 PM EDT
Moon 3:35 PM EDT (9/24) 1:02 AM EDT (9/24)
Length of Visible Light 12h 57m
Length of Day
12h 03m
Waxing Gibbous, 70% of the Moon is Illuminated
Sep 24
Waxing Gibbous
Sep 29
Full
Oct 8
Last Quarter
Oct 15
New
Oct 21
First Quarter

Hourly Weather History & Observations

Time (EDT) Temp. Dew Point Humidity Pressure Visibility Wind Dir Wind Speed Gust Speed Precip Events Conditions
12:55 AM 52.5 °F 43.2 °F 70% 30.12 in 10.0 mi NW 5.8 mph - N/A   Clear
1:55 AM 51.4 °F 43.5 °F 74% 30.12 in 10.0 mi NW 4.6 mph - N/A   Clear
2:55 AM 48.6 °F 43.3 °F 82% 30.11 in 10.0 mi NNW 4.6 mph - N/A   Clear
3:55 AM 49.1 °F 43.7 °F 82% 30.11 in 10.0 mi Calm Calm - N/A   Mostly Cloudy
4:55 AM 48.4 °F 44.1 °F 85% 30.13 in 10.0 mi WNW 4.6 mph - N/A   Clear
5:55 AM 47.5 °F 43.9 °F 87% 30.14 in 10.0 mi Calm Calm - N/A   Clear
6:55 AM 47.3 °F 43.9 °F 88% 30.14 in 10.0 mi WNW 3.5 mph - N/A   Clear
7:55 AM 52.0 °F 45.9 °F 80% 30.16 in 10.0 mi NW 5.8 mph - N/A   Clear
8:55 AM 55.8 °F 46.2 °F 70% 30.18 in 10.0 mi NW 8.1 mph - N/A   Clear
9:55 AM 59.5 °F 46.0 °F 61% 30.18 in 10.0 mi NW 8.1 mph - N/A   Clear
10:55 AM 62.4 °F 43.9 °F 51% 30.18 in 10.0 mi NW 10.4 mph - N/A   Clear
11:55 AM 63.9 °F 42.3 °F 45% 30.17 in 10.0 mi NW 10.4 mph - N/A   Clear
12:55 PM 65.8 °F 41.2 °F 41% 30.15 in 10.0 mi NW 12.7 mph - N/A   Clear
1:55 PM 67.1 °F 39.9 °F 37% 30.13 in 10.0 mi WNW 9.2 mph - N/A   Clear
2:55 PM 68.0 °F 37.4 °F 33% 30.12 in 10.0 mi NW 11.5 mph 18.4 mph N/A   Partly Cloudy
3:55 PM 66.2 °F 39.4 °F 37% 30.11 in 10.0 mi WNW 8.1 mph - N/A   Partly Cloudy
4:55 PM 66.4 °F 36.5 °F 33% 30.11 in 10.0 mi NW 13.8 mph - N/A   Clear
5:55 PM 64.6 °F 37.2 °F 36% 30.12 in 10.0 mi WNW 8.1 mph - N/A   Clear
6:55 PM 59.2 °F 43.0 °F 55% 30.12 in 10.0 mi WNW 3.5 mph - N/A   Clear
7:55 PM 54.0 °F 43.3 °F 67% 30.14 in 10.0 mi Calm Calm - N/A   Clear
8:55 PM 51.1 °F 45.0 °F 80% 30.14 in 10.0 mi Calm Calm - N/A   Clear
9:55 PM 49.6 °F 42.8 °F 77% 30.15 in 10.0 mi Calm Calm - N/A   Clear
10:55 PM 50.2 °F 41.2 °F 71% 30.15 in 10.0 mi Calm Calm - N/A   Clear
11:55 PM 48.7 °F 42.1 °F 78% 30.16 in 10.0 mi Calm Calm - N/A   Clear